Other Public Products
Issued by NWS Grand Forks, ND

Home | Current Version | Previous Version | Text Only | Print | Product List | Glossary Off
Versions: 1 2 3 4 5 6 7 8 9 10 11 12 13 14 15 16 17 18 19 20 21 22 23 24 25 26 27 28 29 30 31 32 33 34 35 36 37 38 39 40 41 42 43 44 45 46 47 48 49 50

058
FPUS83 KFGF 271131
OPUFGF
PRAIRIE TO PINES WEATHER ROUNDUP
NATIONAL WEATHER SERVICE EASTERN NORTH DAKOTA/GRAND FORKS ND
500 AM CST MON FEB 27 2017

 **SATELLITE DATA USED TO AUGMENT SKY COVER AT AUTOMATED STATIONS**
 *****  WEATHER ACROSS EASTERN NORTH DAKOTA  *****

CITY           SKY/WX    TMP DP  RH WIND       PRES   REMARKS
GRAND FORKS    FAIR      11   4  73 S9        29.89F WCI  -2
GRAND FORKS AF FAIR      11   5  78 SW8       29.88F WCI  -1
GRAND CITY NWS NOT AVBL
BUXTON         NOT AVBL
DEVILS LAKE    FAIR      10   7  87 SW5       29.84S WCI   2
FARGO          CLOUDY    22  15  75 CALM      29.91R
WAHPETON ARPT    N/A     21  14  73 E5        29.90S WCI  15
$$

 *****  WEATHER ACROSS CENTRAL AND WESTERN NORTH DAKOTA  *****

CITY           SKY/WX    TMP DP  RH WIND       PRES   REMARKS
JAMESTOWN      CLOUDY    20  18  92 CALM      29.84F
BISMARCK       FAIR      10   7  87 NE5       29.84S WCI   2
MINOT          MOCLDY    14   9  80 NW8       29.80S WCI   3
MINOT AFB      FAIR      10   6  82 NW8       29.80S WCI  -1
GARRISON         N/A      8   6  92 CALM      29.79F
WILLISTON      LGT SNOW  13   8  81 N8        29.81R WCI   2
DICKINSON      LGT SNOW  18  15  88 S9        29.72S FOG     WCI   7
HETTINGER      CLOUDY    20  16  84 E7        29.74F FOG     WCI  11
$$

 *****  OTHER OBSERVATIONS NORTHEAST NORTH DAKOTA  *****

CITY           SKY/WX    TMP DP  RH WIND       PRES   REMARKS
WALHALLA       NOT AVBL
LANGDON        NOT AVBL
CAVALIER         N/A     10   9  92 S5        29.86S WCI   2
GRAFTON        FAIR       9   7  92 S10       29.90S WCI  -6
CANDO          NOT AVBL
FORT TOTTEN      N/A     11  10  95 S3        29.95S
ROLLA          FAIR      10   9  92 SW8       29.78S WCI  -1
RUGBY            N/A      5   3  92 SW6       29.81F WCI  -6
 ***** THE ABOVE OBSERVATIONS ARE NON NWS ARE NOT QUALITY
        CONTROLLED AND MAY MIS-REPORT RAIN FOR SNOW...
$$

 *****  OTHER OBSERVATIONS SOUTHEAST NORTH DAKOTA *****

CITY           SKY/WX    TMP DP  RH WIND       PRES   REMARKS
COOPERSTOWN    FAIR       5   1  85 SE3       29.86F
VALLEY CITY    PTSUNNY   18  18 100 E5        29.88F WCI  11
OAKES          NOT AVBL
GWINNER        PTSUNNY   23  19  86 NE7       29.87S WCI  15
SHEYENNE NWR     N/A     20  15  79 CALM      29.95
BUFFALO        NOT AVBL
WYNDMERE         N/A     19  18  93 E5          N/A  WCI  13
 ***** THE ABOVE OBSERVATIONS ARE NON NWS ARE NOT QUALITY
       CONTROLLED AND MAY MIS-REPORT RAIN FOR SNOW...
$$

  *****  WEATHER ACROSS NORTHERN MINNESOTA  *****

CITY           SKY/WX    TMP DP  RH WIND       PRES   REMARKS
FLAG ISLAND    FAIR       7   1  78 S5        29.85S WCI  -2
WARROAD        FAIR       7   3  85 SW5       29.88R WCI  -2
ROSEAU         FAIR       7   1  78 S8        29.87S WCI  -6
HALLOCK        MOCLDY    12   9  85 S8        29.88R WCI   1
THF RVR FALLS  FAIR       9   6  88 S7        29.90  WCI  -2
HALSTAD          N/A     15  12  87 S3          N/A
FOSSTON        FAIR       7   3  85 SE3       29.89S
BAUDETTE       FAIR       4   0  83 S6        29.87F WCI  -7
WASKISH        FAIR       7   3  85 S3        29.89F
CROOKSTON      FAIR      10   7  85 S5        29.91S WCI   2
$$
  *****  WEATHER ACROSS CENTRAL AND WEST MINNESOTA  *****

CITY           SKY/WX    TMP DP  RH WIND       PRES   REMARKS
BEMIDJI        FAIR       0  -4  85 CALM      29.89S
PARK RAPIDS    CLOUDY    18   9  68 CALM      29.88S
WADENA         CLOUDY    16  10  79 E3        29.88F
DETROIT LAKES  MOCLDY    19  14  79 CALM      29.89S
MOORHEAD       CLOUDY    19  12  73 CALM      29.92R
FERGUS FALLS   CLOUDY    19  12  73 CALM      29.94S
ELBOW LAKE     CLOUDY    19  15  87 NE3       29.88S
MORRIS MN      FAIR      19  16  86 E8        29.86S WCI   9
STAPLES        CLOUDY    16  10  79 CALM      29.89F
WHEATON        FAIR      18  16  93 CALM      29.91S
$$
  *****  WEATHER ELSEWHERE ACROSS MINNESOTA  *****

CITY           SKY/WX    TMP DP  RH WIND       PRES   REMARKS
DULUTH         CLOUDY    17   8  67 CALM      29.92S
INTRNTL FALLS  FAIR       2  -3  80 CALM      29.90S
ELY            FAIR      -8 -11  84 CALM      29.93S
CLOQUET        CLOUDY    16   7  67 CALM      29.92S
BRAINERD       CLOUDY    17  11  77 CALM      29.91F
HIBBING        CLOUDY     4  -1  80 CALM      29.92S
ALEXANDRIA     FAIR      21  18  88 E8        29.87S WCI  11
SAINT CLOUD    FAIR      22  18  85 NE5       29.91S WCI  16
MINNEAPOLIS    FAIR      23  19  85 SE7       29.95R WCI  15
$$

  *****  WEATHER ACROSS SOUTH DAKOTA  *****

CITY           SKY/WX    TMP DP  RH WIND       PRES   REMARKS
SIOUX FALLS    FAIR      25  19  78 S5        29.89S WCI  19
BROOKINGS      FAIR      23  18  81 S5        29.86R WCI  17
WATERTOWN      FAIR      21  18  88 S8        29.83S WCI  11
HURON          FAIR      20  17  88 S5        29.85S WCI  13
SISSETON         N/A     18  17  96 NW3       29.87S
ABERDEEN       CLOUDY    22  18  85 NE7       29.85S WCI  13
MITCHELL       FAIR      21  17  84 S6        29.88R WCI  13
PIERRE         MOCLDY    19  14  81 E3        29.78F
MOBRIDGE       CLOUDY    24  18  77 E8        29.77F WCI  15
RAPID CITY     FAIR      21  13  71 S10       29.66F WCI  10
$$

  *****  SOME WEATHER IN NEARBY STATES *****

CITY           SKY/WX    TMP DP  RH WIND       PRES   REMARKS
GLASGOW MT     LGT SNOW  14  11  87 NE10      29.75F FOG     WCI   1
GREAT FALLS MT LGT SNOW  11   8  88 NE7       29.65F FOG     WCI   0
CHEYENNE WY    FAIR       7   2  80 SW8       29.65F WCI  -6
SCOTTSBLUFF NE FAIR      15   6  67 E10       29.72F WCI   2
OMAHA NE       FAIR      25  18  74 CALM      29.98S
DES MOINES IA  FAIR      27  20  75 E5        30.01S WCI  22
DAVENPORT IA   FAIR      27  24  89 SE5       30.08R WCI  22
CHICAGO IL     FAIR      29  23  78 CALM      30.11R
EAU CLAIRE WI  FAIR      23  20  88 S5        29.98S WCI  17
LA CROSSE WI   FAIR      26  22  84 SE7       30.04R WCI  18
$$

  *****  SOME NATIONAL WEATHER *****

CITY           SKY/WX    TMP DP  RH WIND       PRES   REMARKS
LA GUARDIA NY  FAIR      38  18  44 SW8       30.37R
RALEIGH NC     MOCLDY    42  22  44 SE10      30.34F
ATLANTA GA     MOCLDY    47  28  47 E7        30.24R
NEW ORLEANS LA LGT RAIN  67  63  87 S8        30.04S
OKLAHOMA CITY  CLOUDY    46  39  76 SE8       29.90S
ALBUQUERQUE NM FAIR      32  23  69 E3        29.92F
SALT LAKE CITY CLOUDY    34  30  85 N13       29.63R WCI  25
LOS ANGELES CA MOCLDY    48  44  86 E6        29.93F
BOISE ID       LGT SNOW  29  25  85 SE6       29.65S FOG     WCI  23
SEATTLE WA     LGT RAIN  37  35  92 VRB5      29.76S
$$

*** WEATHER ACROSS MANITOBA...SASKATCHEWAN AND ONTARIO ***
                ***ONTARIO***

CITY           SKY/WX    TMP DP  RH WIND       PRES   REMARKS
GERALDTON      CLEAR     -4  -8  84 S2        29.91R
THUNDER BAY    CLEAR     -2  -4  92 W3        30.00R
SIOUX LOOKOUT  FLURRIES   9   3  78 SW6       29.83R WCI  -1
TORONTO        PTCLDY    36  23  60 SW10      30.10R
BIG TROUT LK   CLEAR    -17 -22  76 W3        29.80R
PICKLE LAKE    CLEAR      0  -4  85 S2        29.79
DRYDEN         CLEAR      7   3  85 S8        29.82R WCI  -6
KENORA         FLURRIES   7   3  85 S8        29.81F WCI  -6
$$
                *** MANITOBA***

CITY           SKY/WX    TMP DP  RH WIND       PRES   REMARKS
BRANDON        PTCLDY     1  -2  85 W10       29.79R WCI -14
DAUPHIN        FLURRIES   5   3  92 N9        29.86R WCI  -9
ISLAND LAKE    PTCLDY   -18 -24  76 CALM      29.81R
PILOT MOUND      N/A      3   0  85 S3          N/A
THE PAS        CLEAR    -15 -20  76 CALM      29.85S
THOMPSON       CRYSTALS -27 -33  75 VRB2      29.82S
WINNIPEG       PTCLDY     7   3  85 S6        29.83S WCI  -3
LYNN LAKE      CLEAR    -27 -33  75 W7        29.78S WCI -46
CHURCHILL      CRYSTALS -29 -36  68 W9        29.79R WCI -51
GILLAM         CLEAR    -24 -29  76 W8        29.81S WCI -43
$$
                ***SASKATCHEWAN***

CITY           SKY/WX    TMP DP  RH WIND       PRES   REMARKS
ESTEVAN        PTCLDY     1  -4  78 NW9       29.81S WCI -14
KINDERSLEY     PTCLDY    -4  -8  84 S3        29.78S
LLOYDMINSTER   PTCLDY    -4  -8  84 SW10      29.70F WCI -21
PRINCE ALBERT  CRYSTALS -11 -17  77 CALM      29.83S
REGINA         MOCLDY     0  -4  85 NW7       29.83S WCI -13
YORKTON        CLEAR     -4  -8  84 W7        29.81R WC



USA.gov is the U.S. government's official web portal to all federal, state and local government web resources and services.